FW4301 Weather Reports


Display with metric or nautical units.
time (UTC)temp
F
wind
direction
speed
MPH
gust
MPH
rain 1hr
in
rain 24hr
in
rain mn
in
humidity
%
barometer
mb
20260502164030 74 0 0.0 0.0 0.00 0.00 0.00 40 1022.4
20260502163530 73 0 0.0 0.0 0.00 0.00 0.00 46 1022.4
20260502163040 73 0 0.0 0.0 0.00 0.00 0.00 44 1022.4
20260502162530 73 0 0.0 0.0 0.00 0.00 0.00 44 1022.4
20260502162031 73 0 0.0 0.0 0.00 0.00 0.00 44 1022.4
20260502161548 72 0 0.0 0.0 0.00 0.00 0.00 46 1022.3
20260502161030 72 0 0.0 0.0 0.00 0.00 0.00 44 1022.3
20260502160530 71 0 0.0 0.0 0.00 0.00 0.00 45 1022.3
20260502152029 67 0 0.0 0.0 0.00 0.00 0.00 60 1022.1
20260502151539 66 0 0.0 0.0 0.00 0.00 0.00 63 1022.0
20260502151029 66 0 0.0 0.0 0.00 0.00 0.00 63 1022.0
20260502150529 65 0 0.0 0.0 0.00 0.00 0.00 64 1022.1
20260502150123 64 0 0.0 0.0 0.00 0.00 0.00 65 1022.1
20260502130530 50 0 0.0 0.0 0.00 0.05 0.00 79 1021.5
20260502123533 48 0 0.0 0.0 0.00 0.06 0.00 77 1021.1
20260502123040 48 0 0.0 0.0 0.00 0.06 0.00 77 1021.1
20260502122529 48 0 0.0 0.0 0.00 0.06 0.00 77 1021.1
20260502122029 48 0 0.0 0.0 0.00 0.06 0.00 77 1021.0
20260502121543 48 0 0.0 0.0 0.00 0.06 0.00 77 1020.8
20260502121030 48 0 0.0 0.0 0.00 0.06 0.00 77 1020.7
20260502120529 48 0 0.0 0.0 0.00 0.06 0.00 77 1020.6
20260502120105 48 0 0.0 0.0 0.00 0.06 0.00 77 1020.5
20260502115531 48 0 0.0 0.0 0.00 0.06 0.00 77 1020.5
20260502115031 48 0 0.0 0.0 0.00 0.06 0.00 77 1020.4
20260502114542 48 0 0.0 0.0 0.00 0.06 0.00 77 1020.2
20260502114030 47 0 0.0 0.0 0.00 0.06 0.00 76 1020.1
20260502113530 47 0 0.0 0.0 0.00 0.06 0.00 76 1020.0
20260502113054 47 0 0.0 0.0 0.00 0.06 0.00 76 1019.9
20260502112529 47 0 0.0 0.0 0.00 0.06 0.00 76 1019.9
20260502112033 47 0 0.0 0.0 0.00 0.06 0.00 76 1019.8
20260502111548 47 0 0.0 0.0 0.00 0.06 0.00 76 1019.8
20260502111029 47 0 0.0 0.0 0.00 0.06 0.00 76 1019.7
20260502110529 47 0 0.0 0.0 0.00 0.06 0.00 76 1019.7
20260502110048 48 0 0.0 0.0 0.00 0.06 0.00 76 1019.7
20260502105528 48 0 0.0 0.0 0.00 0.06 0.00 76 1019.5
20260502105033 48 0 0.0 0.0 0.00 0.06 0.00 76 1019.4
20260502104544 48 0 0.0 0.0 0.00 0.06 0.00 76 1019.3
20260502104031 48 0 0.0 0.0 0.00 0.06 0.00 76 1019.3
20260502103532 48 0 0.0 0.0 0.00 0.06 0.00 76 1019.3
20260502103101 48 0 0.0 0.0 0.00 0.06 0.00 76 1019.2
20260502102530 49 0 0.0 0.0 0.00 0.06 0.00 76 1019.1
20260502102030 49 0 0.0 0.0 0.00 0.06 0.00 76 1019.1
20260502101549 49 0 0.0 0.0 0.00 0.06 0.00 76 1019.1
20260502101029 49 0 0.0 0.0 0.00 0.06 0.00 76 1019.1
20260502100531 49 0 0.0 0.0 0.00 0.06 0.00 76 1019.2
20260502091030 49 0 0.0 0.0 0.00 0.07 0.00 75 1018.7
20260502090529 49 0 0.0 0.0 0.00 0.07 0.00 75 1018.6
20260502071029 51 0 0.0 0.0 0.00 0.07 0.00 75 1018.9
20260502070529 51 0 0.0 0.0 0.00 0.07 0.00 75 1018.9
20260502070045 51 0 0.0 0.0 0.00 0.07 0.00 75 1018.8
20260502065530 51 0 0.0 0.0 0.00 0.07 0.00 75 1018.8
20260502065030 51 0 0.0 0.0 0.00 0.07 0.00 75 1018.8
20260502064541 51 0 0.0 0.0 0.00 0.07 0.00 74 1018.9
20260502064032 51 0 0.0 0.0 0.00 0.07 0.00 74 1019.1
20260502063530 51 0 0.0 0.0 0.00 0.07 0.00 74 1019.1
20260502063050 51 0 0.0 0.0 0.00 0.07 0.00 74 1019.2
20260502062530 51 0 0.0 0.0 0.00 0.07 0.00 74 1019.1
20260502062033 52 0 0.0 0.0 0.00 0.07 0.00 74 1019.1
20260502061541 52 0 0.0 0.0 0.00 0.07 0.00 74 1019.2
20260502061029 52 0 0.0 0.0 0.00 0.07 0.00 74 1019.3
20260502060530 52 0 0.0 0.0 0.00 0.07 0.00 74 1019.2
20260502060039 52 0 0.0 0.0 0.00 0.07 0.00 74 1019.3
20260502055529 52 0 0.0 0.0 0.00 0.07 0.00 74 1019.3
20260502055029 52 0 0.0 0.0 0.00 0.07 0.00 74 1019.3
20260502054554 52 0 0.0 0.0 0.00 0.07 0.00 73 1019.2
20260502054030 52 0 0.0 0.0 0.00 0.07 0.00 73 1019.3
20260502053529 53 0 0.0 0.0 0.00 0.07 0.00 73 1019.2
20260502053048 53 0 0.0 0.0 0.00 0.07 0.00 73 1019.2
20260502052530 53 0 0.0 0.0 0.00 0.07 0.00 73 1019.1
20260502052030 53 0 0.0 0.0 0.00 0.07 0.00 73 1019.2
20260502051541 53 0 0.0 0.0 0.00 0.07 0.00 73 1019.2
20260502051030 53 0 0.0 0.0 0.00 0.07 0.00 73 1019.1
20260502050530 54 0 0.0 0.0 0.00 0.07 0.00 73 1019.1
20260502050053 54 0 0.0 0.0 0.00 0.07 0.00 73 1019.2
20260502045530 54 0 0.0 0.0 0.00 0.07 0.07 73 1019.1
20260502045030 54 0 0.0 0.0 0.00 0.07 0.07 72 1018.9
20260502044544 54 0 0.0 0.0 0.00 0.07 0.07 72 1019.0
20260502044029 54 0 0.0 0.0 0.00 0.07 0.07 72 1019.0
20260502043529 54 0 0.0 0.0 0.00 0.07 0.07 72 1019.0
20260502043041 54 0 0.0 0.0 0.00 0.07 0.07 71 1019.1
20260502042530 54 0 0.0 0.0 0.00 0.07 0.07 71 1019.0
20260502042029 54 0 0.0 0.0 0.00 0.07 0.07 71 1019.1
20260502041547 54 0 0.0 0.0 0.00 0.07 0.07 71 1019.0
20260502041029 55 0 0.0 0.0 0.00 0.07 0.07 70 1018.9
20260502040530 55 0 0.0 0.0 0.00 0.07 0.07 69 1018.9
20260502040049 55 0 0.0 0.0 0.00 0.07 0.07 69 1019.0
20260502035530 55 0 0.0 0.0 0.00 0.07 0.07 69 1019.0
20260502035030 55 0 0.0 0.0 0.00 0.07 0.07 68 1018.9
20260502034540 56 0 0.0 0.0 0.00 0.07 0.07 67 1018.9
20260502034030 56 0 0.0 0.0 0.00 0.07 0.07 67 1018.8
20260502033529 56 0 0.0 0.0 0.00 0.07 0.07 67 1018.8
20260502033043 56 0 0.0 0.0 0.00 0.07 0.07 67 1018.9
20260502032529 56 0 0.0 0.0 0.00 0.07 0.07 67 1018.9
20260502032029 57 0 0.0 0.0 0.00 0.07 0.07 67 1018.9
20260502031539 57 0 0.0 0.0 0.00 0.07 0.07 67 1018.8
20260502031030 57 0 0.0 0.0 0.00 0.07 0.07 67 1018.7
20260502030529 57 0 0.0 0.0 0.00 0.07 0.07 67 1018.7
20260502030044 57 0 0.0 0.0 0.00 0.07 0.07 67 1018.7
20260502025529 57 0 0.0 0.0 0.00 0.07 0.07 67 1018.6
20260502025029 57 0 0.0 0.0 0.00 0.07 0.07 67 1018.5
20260502024545 57 0 0.0 0.0 0.00 0.07 0.07 67 1018.4
20260502024030 57 0 0.0 0.0 0.00 0.07 0.07 67 1018.3
20260502023530 57 0 0.0 0.0 0.00 0.07 0.07 67 1018.2
20260502023041 57 0 0.0 0.0 0.00 0.07 0.07 67 1018.1
20260502022530 57 0 0.0 0.0 0.00 0.07 0.07 67 1018.1
20260502022029 57 0 0.0 0.0 0.00 0.07 0.07 68 1018.1
20260502021540 57 0 0.0 0.0 0.00 0.07 0.07 68 1018.0
20260502021029 57 0 0.0 0.0 0.00 0.07 0.07 68 1018.0
20260502020529 57 0 0.0 0.0 0.00 0.07 0.07 67 1017.9
20260502020040 57 0 0.0 0.0 0.00 0.07 0.07 67 1017.8
20260502015530 57 0 0.0 0.0 0.00 0.07 0.07 67 1017.7
20260502015030 58 0 0.0 0.0 0.00 0.07 0.07 67 1017.6
20260502014540 58 0 0.0 0.0 0.00 0.07 0.07 67 1017.4
20260502014029 58 0 0.0 0.0 0.00 0.07 0.07 66 1017.2
20260502013529 58 0 0.0 0.0 0.00 0.07 0.07 66 1017.1
20260502013053 58 0 0.0 0.0 0.00 0.07 0.07 66 1017.1
20260502012529 58 0 0.0 0.0 0.00 0.07 0.07 66 1017.1
20260502012030 58 0 0.0 0.0 0.00 0.07 0.07 66 1017.1
20260502011543 59 0 0.0 0.0 0.00 0.07 0.07 65 1016.9
20260502011028 59 0 0.0 0.0 0.00 0.07 0.07 65 1016.8
20260502010529 59 0 0.0 0.0 0.00 0.07 0.07 65 1016.7
20260502010049 59 0 0.0 0.0 0.00 0.07 0.07 65 1016.6
20260502005530 59 0 0.0 0.0 0.00 0.07 0.07 64 1016.5
20260502005030 59 0 0.0 0.0 0.00 0.07 0.07 64 1016.5
20260502004540 59 0 0.0 0.0 0.00 0.07 0.07 63 1016.3
20260502004029 60 0 0.0 0.0 0.00 0.07 0.07 63 1016.3
20260502003529 60 0 0.0 0.0 0.00 0.07 0.07 62 1016.2
20260502003039 60 0 0.0 0.0 0.00 0.07 0.07 62 1016.1
20260502002529 60 0 0.0 0.0 0.00 0.07 0.07 62 1015.9
20260502002029 61 0 0.0 0.0 0.00 0.07 0.07 62 1016.0
20260502001538 61 0 0.0 0.0 0.00 0.07 0.07 61 1016.0
20260502001030 61 0 0.0 0.0 0.00 0.07 0.07 62 1016.0
20260502000529 61 0 0.0 0.0 0.00 0.07 0.07 61 1015.7
20260502000047 61 0 0.0 0.0 0.00 0.07 0.07 61 1015.8
20260501235528 61 0 0.0 0.0 0.00 0.07 0.07 61 1015.7
20260501235029 61 0 0.0 0.0 0.00 0.07 0.07 63 1015.6
20260501234550 61 0 0.0 0.0 0.00 0.07 0.07 63 1015.7
20260501234030 61 0 0.0 0.0 0.00 0.07 0.07 63 1015.5
20260501233530 61 0 0.0 0.0 0.00 0.07 0.07 63 1015.6
20260501233054 61 0 0.0 0.0 0.00 0.07 0.07 62 1015.8
20260501232529 61 0 0.0 0.0 0.00 0.07 0.07 61 1015.7
20260501232029 61 0 0.0 0.0 0.00 0.07 0.07 62 1015.7
20260501231539 61 0 0.0 0.0 0.00 0.07 0.07 62 1015.7
20260501231029 62 0 0.0 0.0 0.00 0.07 0.07 64 1015.7
20260501230529 62 0 0.0 0.0 0.00 0.07 0.07 62 1015.4
20260501230046 62 0 0.0 0.0 0.00 0.07 0.07 61 1015.4
20260501225529 62 0 0.0 0.0 0.00 0.08 0.07 60 1015.6
20260501225029 62 0 0.0 0.0 0.00 0.08 0.07 59 1015.6
20260501224549 62 0 0.0 0.0 0.00 0.08 0.07 58 1015.4
20260501224031 62 0 0.0 0.0 0.00 0.08 0.07 58 1015.2
20260501223529 62 0 0.0 0.0 0.00 0.08 0.07 57 1015.2
20260501223054 62 0 0.0 0.0 0.00 0.08 0.07 57 1015.2
20260501222529 63 0 0.0 0.0 0.00 0.08 0.07 56 1015.1
20260501222029 63 0 0.0 0.0 0.00 0.08 0.07 59 1015.2
20260501221541 63 0 0.0 0.0 0.00 0.08 0.07 58 1015.0
20260501221033 63 0 0.0 0.0 0.00 0.08 0.07 59 1015.0
20260501220530 64 0 0.0 0.0 0.00 0.08 0.07 58 1014.9
20260501220045 64 0 0.0 0.0 0.00 0.08 0.07 57 1014.8
20260501215531 64 0 0.0 0.0 0.00 0.10 0.07 58 1014.9
20260501215030 64 0 0.0 0.0 0.00 0.10 0.07 59 1014.9
20260501214540 64 0 0.0 0.0 0.00 0.10 0.07 58 1015.1
20260501214029 64 0 0.0 0.0 0.00 0.10 0.07 57 1015.0
20260501213534 64 0 0.0 0.0 0.00 0.10 0.07 57 1015.0
20260501213048 64 0 0.0 0.0 0.00 0.10 0.07 57 1015.0
20260501212530 64 0 0.0 0.0 0.00 0.10 0.07 58 1015.0
20260501212030 64 0 0.0 0.0 0.00 0.10 0.07 58 1015.0
20260501211555 64 0 0.0 0.0 0.00 0.10 0.07 57 1015.1
20260501211029 63 0 0.0 0.0 0.00 0.10 0.07 58 1015.0
20260501210530 63 0 0.0 0.0 0.00 0.10 0.07 61 1015.1
20260501210042 63 0 0.0 0.0 0.00 0.10 0.07 59 1015.1
20260501205531 62 0 0.0 0.0 0.00 0.10 0.07 59 1015.2
20260501205030 62 0 0.0 0.0 0.00 0.10 0.07 59 1015.3
20260501204554 61 0 0.0 0.0 0.00 0.10 0.07 63 1015.6
20260501204030 60 0 0.0 0.0 0.00 0.10 0.07 63 1015.6
20260501203529 60 0 0.0 0.0 0.00 0.10 0.07 62 1015.3
20260501203059 60 0 0.0 0.0 0.00 0.10 0.07 61 1015.4
20260501202528 60 0 0.0 0.0 0.00 0.10 0.07 61 1015.4
20260501202029 61 0 0.0 0.0 0.00 0.10 0.07 59 1015.6
20260501201546 61 0 0.0 0.0 0.00 0.10 0.07 59 1015.8
20260501201028 61 0 0.0 0.0 0.00 0.10 0.07 57 1016.1
20260501200528 61 0 0.0 0.0 0.00 0.10 0.07 59 1016.1
20260501200053 61 0 0.0 0.0 0.00 0.10 0.07 59 1016.1
20260501195528 61 0 0.0 0.0 0.00 0.10 0.07 59 1016.1
20260501195032 61 0 0.0 0.0 0.00 0.10 0.07 60 1015.9
20260501194544 61 0 0.0 0.0 0.00 0.10 0.07 60 1015.9
20260501194030 61 0 0.0 0.0 0.00 0.10 0.07 59 1016.1
20260501193533 61 0 0.0 0.0 0.00 0.10 0.07 59 1016.4
20260501193048 61 0 0.0 0.0 0.00 0.10 0.07 59 1016.4
20260501192530 61 0 0.0 0.0 0.00 0.10 0.07 59 1015.8
20260501192031 61 0 0.0 0.0 0.00 0.10 0.07 60 1015.3
20260501191546 61 0 0.0 0.0 0.00 0.10 0.07 59 1015.2
20260501191031 60 0 0.0 0.0 0.00 0.10 0.07 59 1015.0
20260501190529 60 0 0.0 0.0 0.00 0.10 0.07 59 1015.1
20260501190046 61 0 0.0 0.0 0.00 0.10 0.07 59 1015.0
20260501185530 61 0 0.0 0.0 0.00 0.10 0.07 58 1014.9
20260501185032 61 0 0.0 0.0 0.00 0.10 0.07 59 1015.6
20260501184546 61 0 0.0 0.0 0.00 0.10 0.07 60 1015.4
20260501184030 62 0 0.0 0.0 0.00 0.10 0.07 60 1015.5
20260501183530 62 0 0.0 0.0 0.00 0.10 0.07 59 1016.0
20260501183041 62 0 0.0 0.0 0.00 0.10 0.07 60 1016.0
20260501182529 63 0 0.0 0.0 0.00 0.10 0.07 61 1015.8
20260501182029 63 0 0.0 0.0 0.00 0.10 0.07 62 1015.7
20260501181543 63 0 0.0 0.0 0.00 0.10 0.07 62 1015.5
20260501181030 63 0 0.0 0.0 0.00 0.10 0.07 63 1015.6
20260501180529 63 0 0.0 0.0 0.00 0.10 0.07 63 1015.5
20260501180041 62 0 0.0 0.0 0.00 0.10 0.07 63 1015.7